This demonstration page uses our WeatherBlox Daily Observations layout. Learn more.

Left ArrowRight Arrow

Hourly Observations for April 8, 2022

Temp ( °F °C ) Dew Point ( °F °C ) Humidity (%) Winds ( mph kmh ) Pressure ( in mb ) Visibility ( mi km ) Precip ( " mm )
12:53 am 00:53 Clear 41 5 20 -6.7 43 43 NNW 26 43 30.10 1019 10 16 0.00 0.00
1:53 am 01:53 Clear 39 3.9 20 -6.7 46 46 N 31 50 30.11 1020 10 16 0.00 0.00
2:53 am 02:53 Clear 36 2.2 22 -5.6 57 57 N 25 41 30.13 1020 10 16 0.00 0.00
3:53 am 03:53 Clear 34 1.1 22 -5.6 61 61 N 24 39 30.15 1021 10 16 0.00 0.00
4:53 am 04:53 Clear 32 0 23 -5 69 69 NNW 21 33 30.16 1021 10 16 0.00 0.00
5:53 am 05:53 Clear 30 -1.1 23 -5 75 75 NNW 15 24 30.16 1021 10 16 0.00 0.00
6:53 am 06:53 Clear 30 -1.1 22 -5.6 72 72 NNW 15 24 30.17 1022 10 16 0.00 0.00
7:53 am 07:53 Sunny 31 -0.6 23 -5 72 72 NNW 18 30 30.19 1023 10 16 0.00 0.00
8:53 am 08:53 Sunny 34 1.1 22 -5.6 61 61 NNW 24 39 30.20 1023 10 16 0.00 0.00
9:53 am 09:53 Sunny 38 3.3 20 -6.7 48 48 NNW 31 50 30.21 1023 10 16 0.00 0.00
10:53 am 10:53 Sunny 41 5 19 -7.2 41 41 NNW 30 48 30.20 1023 10 16 0.00 0.00
11:53 am 11:53 Sunny 45 7.2 16 -8.9 31 31 NNW 22 35 30.19 1022 10 16 0.00 0.00
12:53 pm 12:53 Sunny 49 9.4 13 -10.6 23 23 NNW 28 44 30.17 1022 10 16 0.00 0.00
1:53 pm 13:53 Sunny 51 10.6 10 -12.2 19 19 NNW 30 48 30.14 1021 10 16 0.00 0.00
2:53 pm 14:53 Sunny 53 11.7 7 -13.9 15 15 N 28 44 30.13 1020 10 16 0.00 0.00
3:53 pm 15:53 Sunny 54 12.2 5 -15 14 14 N 26 43 30.10 1019 10 16 0.00 0.00
4:53 pm 16:53 Sunny 55 12.8 5 -15 13 13 N 25 41 30.09 1019 10 16 0.00 0.00
5:53 pm 17:53 Sunny 54 12.2 4 -15.6 13 13 NNW 22 35 30.09 1019 10 16 0.00 0.00
6:53 pm 18:53 Sunny 53 11.7 4 -15.6 13 13 N 18 30 30.07 1018 10 16 0.00 0.00
7:53 pm 19:53 Sunny 48 8.9 6 -14.4 18 18 N 12 19 30.06 1018 10 16 0.00 0.00
8:53 pm 20:53 Clear 41 5 6 -14.4 23 23 NNW 7 11 30.06 1018 10 16 0.00 0.00
9:53 pm 21:53 Clear 38 3.3 8 -13.3 29 29 W 3 6 30.07 1018 10 16 0.00 0.00
10:53 pm 22:53 Clear 33 0.6 8 -13.3 35 35 Calm 30.06 1018 10 16 0.00 0.00
11:53 pm 23:53 Clear 31 -0.6 9 -12.8 40 40 W 3 6 30.04 1017 10 16 0.00 0.00

Powered by AerisWeather